sat.trackr.live / text

‹ back to catalog

INNOSAT 16 (RS92S7)

NORAD 64878 · 2025-155C

PAYLOAD ACTIVE UNKNOWN

§ Identity

Operator
Country
MALA
Launch date
2025-07-25
Launch site
VOSTO
Launch vehicle
Mass (kg)
RCS (m²)

Purposes: comms

External: N2YO · Heavens-Above · Gunter

§ Orbital elements

Epoch: 2026-09-19T22:57:33.868800Z

Period
94.34 min
Inclination
97.4687°
Eccentricity
0.0009363
Mean motion
15.26353095 rev/d
Perigee alt
480.3 km
Apogee alt
493.2 km
Semi-major
6,864.9 km
B*
1.5692e-4
RAAN
229.9053°
Arg perigee
201.8157°
Mean anomaly
158.2684°
Rev number
9,512

§ Raw data

INNOSAT 16 (RS92S7)1 64878U 25155C   26262.95664200  .00004007  00000+0  15692-3 0  99972 64878  97.4687 229.9053 0009363 201.8157 158.2684 15.26353095 95121

JSON: /api/v1/satellites/64878 · /tle

For live sub-satellite position, see the globe view (requires WebGL).

§ Visibility from observer

Set your observer location to see the next 7 days of passes ≥ 10°. The values pass through the URL so the page stays shareable.

No JS? Fill the form by hand. The geolocation button needs JavaScript.

§ Radio — SatNOGS DB

ModeDescriptionDownlinkUplink
GFSK Mode U - GFSK9k6 - AX.25 Beacon and Ham Payload (Geoscan framing) 435.830 MHz

1 transmitter · refreshed weekly from db.satnogs.org